COSMOS 1853

Satellite information

Favourite Embed

Satellite Type and Status

PAYLOADIN ORBIT

Key statistics

Satellite COSMOS 1853 at a glance.

Uptime

13903

Days in orbit

Revolutions

≈ 12.5

Per day

Orbit

LEO

Low Earth Orbit

Inclination

74.0

Latest

Satellite identification and parameters

Extended collection of information and parameters for COSMOS 1853.

Object identification

Identified? True

Debris? False

Object name: COSMOS 1853

International designator: 1987-051B

Object number (NORAD): 18114

Object ID (CCSDS): 18114

Country: COMMONWEALTH OF INDEPENDENT STATES (CIS)

Current information (Y/N): Y

RCS size: MEDIUM

Orbital parameters

Period: 115.476 minutes

Inclination: 74.0028 deg

SMA: 7855.151 km

Apoapsis: 1482.149 km

Periapsis: 1471.883 km

RAAN: 143.1048 deg

Eccentricy: 0.0006535

Argument of periapsis: 332.1756 deg

Mean anomaly: 88.6755 deg

Mean motion: 12.47012958 rev/day

Mean motion (dot): -0.00000028 rev/day2

B* drag term: -0.00008615 1/REarth

Two-line elements (TLE)

Creation date: July 9, 2025, 2:22 a.m.

Reference frame: TEME

Reference center: EARTH

Epoch: July 8, 2025, 8:49 p.m. UTC

TLE line 0: 0 COSMOS 1853

TLE line 1: 1 18114U 87051B 25189.86792465 -.00000028 00000-0 -86150-4 0 9994

TLE line 2: 2 18114 74.0028 143.1048 0006535 332.1756 88.6755 12.47012958732713

Live tracking on map

Real-time ground track for satellite COSMOS 1853.

In-orbit conjunctions

A list of the most updated potential collisions computed for object COSMOS 1853.

Target Orbit TCA Probability of collision Miss distance Type
THORAD DELTA 1 DEB SSO 2025-03-26 04:38:15 0.0004130478 255.0 (m) DEBRIS
SL-8 DEB LEO 2025-01-09 00:35:29 0.0007175938 345.0 (m) DEBRIS

Associated space launch

Military communications satellites

COSMOS 1853 was lifted into orbit during the mission ‘Kosmos-3M | Strela-1M 321-328’, on board a Kosmos-3M space rocket.

The launch took place on June 16, 1987, 5:51 p.m. from 132/1 (132L).

For more information about the launch, click the button.

Launch to space Kosmos-3M | Strela-1M 321-328
Kosmos-3M | Strela-1M 321-328

Agency: N/A

Status: Launch Successful

Launch date: June 16, 1987, 5:51 p.m. UTC

Rocket: Kosmos-3M

Launch pad: 132/1 (132L)

Location: Plesetsk Cosmodrome, Russian Federation

...

Latest news about this satellite

There are no fresh news available about this satellite. Check back as we update our databases every day.


Newsletter sign-up

Weekly statistics, charts and insights to help you stay on top of the space industry.